Granite Falls, MN

10:57 PM CDT on July 26, 2017 (GMT -0500)
Granite Falls

Weather History for KGDB - November, 2011

Change the Weather History Date:

Friday, November 11, 2011

  Actual Average (KMVE) Record (KMVE)
Temperature  
Mean Temperature 43 °F -  
Max Temperature 59 °F 39 °F 71 °F (1954)
Min Temperature 27 °F 23 °F -4 °F (1986)
Degree Days  
Heating Degree Days 22    
Moisture  
Dew Point 20 °F    
Average Humidity 45    
Maximum Humidity 66    
Minimum Humidity 25    
Precipitation  
Precipitation 0.00 in - - ()
Sea Level Pressure  
Sea Level Pressure 29.66 in    
Wind  
Wind Speed 9 mph (SSW)    
Max Wind Speed 13 mph    
Max Gust Speed 16 mph    
Visibility 8 miles    
Events      
Averages and records for this station are not official NWS values.
T = Trace of Precipitation, MM = Missing Value Source: NWS Daily Summary

Daily Weather History Graph

Daily Weather History Graph

Search for Another Location

Airport or City:

Trip Planner

Search our weather history database for the weather conditions in past years. The results will help you decide how hot, cold, wet, or windy it might be!

Date:

Astronomy

Nov. 11, 2011 Rise Set
Actual Time 7:13 AM CST 4:58 PM CST
Civil Twilight 6:42 AM CST 5:29 PM CST
Nautical Twilight 6:07 AM CST 6:04 PM CST
Astronomical Twilight 5:32 AM CST 6:39 PM CST
Moon 5:24 PM CST (11/11) 8:06 AM CST (11/11)
Length of Visible Light 10h 47m
Length of Day
9h 44m
Full, 99% of the Moon is Illuminated
Nov 11
Full
Nov 18
Last Quarter
Nov 25
New
Dec 2
First Quarter
Dec 10
Full

Hourly Weather History & Observations

Time (CST) Temp. Windchill Dew Point Humidity Pressure Visibility Wind Dir Wind Speed Gust Speed Precip Events Conditions
12:13 AM 30.7 °F 22.6 °F 16.2 °F 55% 29.90 in 7.0 mi SE 9.2 mph - N/A   Scattered Clouds
12:33 AM 32.0 °F 23.6 °F 15.8 °F 51% 29.88 in 10.0 mi SE 10.4 mph - N/A   Scattered Clouds
12:53 AM 32.2 °F 23.8 °F 15.6 °F 51% 29.87 in 10.0 mi SE 10.4 mph - N/A   Mostly Cloudy
1:13 AM 32.4 °F 24.6 °F 15.3 °F 49% 29.86 in 7.0 mi SE 9.2 mph - N/A   Mostly Cloudy
1:32 AM 32.5 °F 24.2 °F 15.3 °F 49% 29.84 in 7.0 mi SE 10.4 mph - N/A   Scattered Clouds
1:53 AM 32.2 °F 23.2 °F 14.9 °F 49% 29.83 in 10.0 mi SE 11.5 mph - N/A   Clear
2:13 AM 32.2 °F 22.7 °F 14.7 °F 49% 29.81 in 7.0 mi SE 12.7 mph - N/A   Clear
3:12 AM 30.7 °F 21.4 °F 14.9 °F 52% 29.77 in 10.0 mi SE 11.5 mph - N/A   Clear
3:32 AM 30.9 °F 22.8 °F 14.4 °F 50% 29.76 in 10.0 mi ESE 9.2 mph - N/A   Clear
3:53 AM 30.7 °F 22.6 °F 14.9 °F 52% 29.75 in 10.0 mi SE 9.2 mph - N/A   Clear
4:33 AM 30.7 °F 23.3 °F 15.3 °F 53% 29.74 in 10.0 mi ESE 8.1 mph - N/A   Clear
4:52 AM 30.7 °F 20.9 °F 15.1 °F 52% 29.72 in 10.0 mi SE 12.7 mph - N/A   Scattered Clouds
5:13 AM 31.1 °F 22.4 °F 15.8 °F 53% 29.71 in 7.0 mi SE 10.4 mph - N/A   Mostly Cloudy
5:33 AM 30.4 °F 21.5 °F 16.5 °F 56% 29.69 in 10.0 mi SE 10.4 mph - N/A   Scattered Clouds
6:13 AM 30.2 °F 20.8 °F 17.6 °F 60% 29.68 in 7.0 mi SSE 11.5 mph - N/A   Clear
6:33 AM 29.7 °F 22.0 °F 18.1 °F 62% 29.68 in 7.0 mi SSE 8.1 mph - N/A   Clear
6:52 AM 27.7 °F 19.6 °F 17.2 °F 65% 29.68 in 10.0 mi South 8.1 mph - N/A   Clear
7:13 AM 29.3 °F 21.5 °F 18.1 °F 63% 29.68 in 10.0 mi South 8.1 mph - N/A   Clear
7:32 AM 28.9 °F 22.8 °F 18.3 °F 65% 29.68 in 10.0 mi SE 5.8 mph - N/A   Clear
7:53 AM 28.6 °F 22.4 °F 18.5 °F 66% 29.67 in 7.0 mi SSE 5.8 mph - N/A   Clear
8:13 AM 30.6 °F 24.7 °F 19.4 °F 63% 29.68 in 10.0 mi South 5.8 mph - N/A   Clear
8:33 AM 32.9 °F 25.3 °F 20.5 °F 60% 29.67 in 10.0 mi South 9.2 mph - N/A   Clear
9:13 AM 36.3 °F 31.6 °F 21.9 °F 56% 29.66 in 7.0 mi South 5.8 mph - N/A   Clear
9:32 AM 38.7 °F 33.6 °F 22.6 °F 53% 29.66 in 7.0 mi SSW 6.9 mph - N/A   Clear
10:13 AM 43.0 °F 37.7 °F 23.2 °F 46% 29.65 in 10.0 mi SW 9.2 mph - N/A   Clear
10:33 AM 44.1 °F 40.1 °F 23.0 °F 43% 29.65 in 10.0 mi WSW 6.9 mph - N/A   Clear
10:52 AM 46.2 °F 42.2 °F 23.5 °F 41% 29.65 in 10.0 mi WSW 8.1 mph - N/A   Clear
11:13 AM 48.0 °F - 23.7 °F 39% 29.65 in 10.0 mi WSW 6.9 mph - N/A   Clear
11:32 AM 48.7 °F - 23.4 °F 37% 29.64 in 10.0 mi West 6.9 mph - N/A   Clear
11:52 AM 50.2 °F - 23.4 °F 35% 29.64 in 10.0 mi WSW 5.8 mph - N/A   Clear
12:33 PM 52.7 °F - 23.7 °F 32% 29.62 in 10.0 mi WSW 9.2 mph - N/A   Clear
12:53 PM 53.4 °F - 23.4 °F 31% 29.62 in 10.0 mi West 6.9 mph - N/A   Clear
1:12 PM 54.7 °F - 23.2 °F 29% 29.62 in 7.0 mi West 11.5 mph - N/A   Clear
1:32 PM 55.9 °F - 23.5 °F 29% 29.61 in 7.0 mi West 10.4 mph - N/A   Clear
1:53 PM 56.3 °F - 23.7 °F 28% 29.61 in 7.0 mi West 8.1 mph 16.1 mph N/A   Clear
2:13 PM 57.2 °F - 23.5 °F 27% 29.61 in 7.0 mi West 8.1 mph - N/A   Clear
2:32 PM 58.3 °F - 23.5 °F 26% 29.61 in 7.0 mi West 10.4 mph - N/A   Clear
2:52 PM 58.6 °F - 24.1 °F 27% 29.60 in 5.0 mi West 10.4 mph - N/A   Haze
3:13 PM 59.4 °F - 23.7 °F 25% 29.60 in 7.0 mi West 10.4 mph - N/A   Clear
3:32 PM 59.2 °F - 23.7 °F 26% 29.60 in 7.0 mi West 11.5 mph - N/A   Clear
3:52 PM 58.5 °F - 23.7 °F 26% 29.60 in 10.0 mi WSW 11.5 mph - N/A   Clear
4:13 PM 57.4 °F - 23.9 °F 28% 29.60 in 10.0 mi WSW 10.4 mph - N/A   Clear
4:32 PM 55.8 °F - 23.7 °F 29% 29.60 in 5.0 mi WSW 10.4 mph - N/A   Haze
4:53 PM 52.3 °F - 23.2 °F 32% 29.60 in 10.0 mi WSW 9.2 mph - N/A   Clear
5:13 PM 49.5 °F - 22.3 °F 34% 29.60 in 5.0 mi SW 6.9 mph - N/A   Haze
5:32 PM 47.8 °F - 21.6 °F 35% 29.59 in 10.0 mi SW 8.1 mph - N/A   Clear
5:53 PM 47.3 °F - 22.3 °F 37% 29.60 in 7.0 mi SW 9.2 mph - N/A   Clear
6:12 PM 48.2 °F - 22.5 °F 36% 29.60 in 10.0 mi SW 8.1 mph - N/A   Clear
6:33 PM 48.0 °F - 22.6 °F 37% 29.60 in 10.0 mi SW 8.1 mph - N/A   Clear
6:52 PM 47.5 °F - 22.5 °F 37% 29.60 in 10.0 mi SSW 6.9 mph - N/A   Clear
7:13 PM 42.1 °F 38.4 °F 21.2 °F 43% 29.60 in 7.0 mi South 5.8 mph - N/A   Clear
7:33 PM 38.8 °F 35.4 °F 20.1 °F 47% 29.59 in 7.0 mi South 4.6 mph - N/A   Clear
7:52 PM 36.3 °F 30.8 °F 18.9 °F 49% 29.59 in 7.0 mi South 6.9 mph - N/A   Clear
8:13 PM 36.9 °F 31.4 °F 19.8 °F 50% 29.59 in 7.0 mi South 6.9 mph - N/A   Clear
8:33 PM 38.5 °F 32.1 °F 20.7 °F 49% 29.58 in 7.0 mi South 9.2 mph - N/A   Clear
8:53 PM 37.0 °F 29.8 °F 19.9 °F 50% 29.59 in 7.0 mi South 10.4 mph - N/A   Clear
9:12 PM 40.8 °F 35.6 °F 21.7 °F 47% 29.59 in 7.0 mi SSW 8.1 mph - N/A   Clear
9:32 PM 36.3 °F 30.1 °F 19.2 °F 50% 29.59 in 7.0 mi South 8.1 mph - N/A   Clear
9:53 PM 35.6 °F 29.2 °F 20.5 °F 54% 29.59 in 7.0 mi SSW 8.1 mph - N/A   Clear
10:13 PM 40.1 °F 35.3 °F 22.1 °F 49% 29.59 in 7.0 mi SSW 6.9 mph - N/A   Clear
10:32 PM 38.3 °F 33.9 °F 21.2 °F 50% 29.59 in 10.0 mi SSW 5.8 mph - N/A   Clear
10:53 PM 37.2 °F 32.6 °F 21.0 °F 52% 29.58 in 7.0 mi SSW 5.8 mph - N/A   Clear
11:12 PM 33.4 °F 26.6 °F 19.2 °F 56% 29.57 in 7.0 mi South 8.1 mph - N/A   Clear
11:32 PM 33.1 °F 26.9 °F 19.4 °F 57% 29.57 in 7.0 mi South 6.9 mph - N/A   Clear
11:53 PM 33.4 °F 27.3 °F 20.3 °F 59% 29.56 in 7.0 mi South 6.9 mph - N/A   Clear